• In Uzbekistan
  • List of Countries
  • For 7 days
  • Water Temperature
  • Satellite Maps
  • Weather Map
  • Weather Widgets
  • user-avatar
    Login

    Hourly Weather Neuquén

    Today, 24 April, Monday

    Time Temperature Precipitation Wind Pressure Humidity
    00:00 +12°C° 0 mm 1 mps 733 mmHg 44%
    01:00 +10°C° 0 mm 2 mps 734 mmHg 45%
    02:00 +10°C° 0 mm 2 mps 733 mmHg 47%
    03:00 +9°C° 0 mm 2 mps 733 mmHg 49%
    04:00 +9°C° 0 mm 2 mps 733 mmHg 52%
    05:00 +9°C° 0 mm 2 mps 733 mmHg 52%
    06:00 +9°C° 0 mm 2 mps 733 mmHg 52%
    07:00 +10°C° 0 mm 1 mps 732 mmHg 53%
    08:00 +13°C° 0 mm 2 mps 732 mmHg 45%
    09:00 +14°C° 0 mm 3 mps 732 mmHg 38%
    10:00 +17°C° 0 mm 4 mps 732 mmHg 30%
    11:00 +19°C° 0 mm 4 mps 731 mmHg 27%
    12:00 +20°C° 0 mm 5 mps 730 mmHg 24%
    13:00 +21°C° 0 mm 6 mps 730 mmHg 20%
    14:00 +20°C° 0.1 mm 5 mps 729 mmHg 22%
    15:00 +20°C° 0.1 mm 4 mps 729 mmHg 23%
    16:00 +20°C° 0.1 mm 3 mps 728 mmHg 25%
    17:00 +18°C° 0.3 mm 4 mps 729 mmHg 34%
    18:00 +16°C° 0.3 mm 6 mps 729 mmHg 43%
    19:00 +15°C° 0.3 mm 7 mps 729 mmHg 52%
    20:00 +14°C° 0.2 mm 6 mps 730 mmHg 53%
    21:00 +13°C° 0.2 mm 6 mps 730 mmHg 54%
    22:00 +13°C° 0.2 mm 5 mps 731 mmHg 55%
    23:00 +12°C° 0 mm 5 mps 731 mmHg 56%

    Tomorrow, 25 April, Tuesday

    Time Temperature Precipitation Wind Pressure Humidity
    00:00 +10°C° 0 mm 5 mps 731 mmHg 56%
    01:00 +10°C° 0 mm 5 mps 731 mmHg 57%
    02:00 +9°C° 0 mm 6 mps 731 mmHg 57%
    03:00 +9°C° 0 mm 6 mps 731 mmHg 57%
    04:00 +9°C° 0 mm 6 mps 731 mmHg 57%
    05:00 +9°C° 0 mm 7 mps 731 mmHg 56%
    06:00 +9°C° 0 mm 7 mps 732 mmHg 56%
    07:00 +9°C° 0 mm 8 mps 732 mmHg 55%
    08:00 +10°C° 0 mm 9 mps 733 mmHg 48%
    09:00 +12°C° 0 mm 10 mps 733 mmHg 42%
    10:00 +13°C° 0 mm 12 mps 733 mmHg 35%
    11:00 +13°C° 0 mm 11 mps 733 mmHg 32%
    12:00 +14°C° 0 mm 11 mps 733 mmHg 29%
    13:00 +14°C° 0 mm 10 mps 733 mmHg 27%
    14:00 +14°C° 0 mm 10 mps 733 mmHg 29%
    15:00 +14°C° 0 mm 10 mps 733 mmHg 31%
    16:00 +13°C° 0 mm 10 mps 733 mmHg 33%
    17:00 +12°C° 0 mm 10 mps 734 mmHg 38%
    18:00 +11°C° 0 mm 10 mps 734 mmHg 42%
    19:00 +10°C° 0 mm 9 mps 735 mmHg 46%
    20:00 +10°C° 0 mm 9 mps 735 mmHg 48%
    21:00 +10°C° 0 mm 8 mps 735 mmHg 50%
    22:00 +9°C° 0 mm 8 mps 736 mmHg 53%
    23:00 +9°C° 0 mm 8 mps 735 mmHg 53%

    Day after tomorrow, 26 April, Wednesday

    Time Temperature Precipitation Wind Pressure Humidity
    00:00 +9°C° 0 mm 8 mps 735 mmHg 54%
    01:00 +8°C° 0 mm 9 mps 735 mmHg 55%
    02:00 +8°C° 0 mm 9 mps 735 mmHg 55%
    03:00 +8°C° 0 mm 9 mps 735 mmHg 55%
    04:00 +8°C° 0 mm 10 mps 734 mmHg 55%
    05:00 +8°C° 0 mm 9 mps 734 mmHg 55%
    06:00 +8°C° 0 mm 9 mps 734 mmHg 55%
    07:00 +8°C° 0 mm 9 mps 734 mmHg 55%
    08:00 +11°C° 0 mm 10 mps 734 mmHg 49%
    09:00 +13°C° 0 mm 11 mps 734 mmHg 44%
    10:00 +15°C° 0 mm 12 mps 734 mmHg 38%
    11:00 +17°C° 0 mm 11 mps 734 mmHg 35%
    12:00 +18°C° 0 mm 11 mps 734 mmHg 33%
    13:00 +19°C° 0 mm 11 mps 733 mmHg 30%
    14:00 +19°C° 0 mm 10 mps 733 mmHg 32%
    15:00 +18°C° 0 mm 10 mps 733 mmHg 34%
    16:00 +17°C° 0 mm 9 mps 732 mmHg 36%
    17:00 +16°C° 0 mm 9 mps 733 mmHg 40%
    18:00 +15°C° 0 mm 8 mps 733 mmHg 45%
    19:00 +13°C° 0 mm 8 mps 733 mmHg 50%
    20:00 +12°C° 0 mm 7 mps 733 mmHg 52%
    21:00 +12°C° 0 mm 7 mps 733 mmHg 54%
    22:00 +11°C° 0 mm 6 mps 733 mmHg 57%
    23:00 +11°C° 0 mm 6 mps 733 mmHg 57%

    27 April, Thursday

    Time Temperature Precipitation Wind Pressure Humidity
    00:00 +11°C° 0 mm 6 mps 733 mmHg 57%
    01:00 +10°C° 0 mm 5 mps 733 mmHg 58%
    02:00 +10°C° 0 mm 5 mps 733 mmHg 58%
    03:00 +10°C° 0 mm 5 mps 732 mmHg 58%
    04:00 +11°C° 0 mm 4 mps 732 mmHg 58%
    05:00 +11°C° 0 mm 4 mps 732 mmHg 57%
    06:00 +10°C° 0 mm 5 mps 732 mmHg 57%
    07:00 +10°C° 0 mm 5 mps 731 mmHg 56%
    08:00 +14°C° 0 mm 6 mps 731 mmHg 50%
    09:00 +16°C° 0 mm 7 mps 731 mmHg 43%
    10:00 +18°C° 0 mm 8 mps 731 mmHg 36%
    11:00 +19°C° 0 mm 9 mps 731 mmHg 34%
    12:00 +21°C° 0 mm 10 mps 731 mmHg 32%
    13:00 +22°C° 0 mm 10 mps 730 mmHg 31%
    14:00 +22°C° 0 mm 9 mps 731 mmHg 33%
    15:00 +21°C° 0 mm 8 mps 731 mmHg 35%
    16:00 +20°C° 0 mm 7 mps 731 mmHg 37%
    17:00 +20°C° 0 mm 7 mps 732 mmHg 40%
    18:00 +19°C° 0 mm 6 mps 732 mmHg 44%
    19:00 +17°C° 0 mm 6 mps 733 mmHg 47%
    20:00 +16°C° 0 mm 6 mps 733 mmHg 49%
    21:00 +16°C° 0 mm 6 mps 734 mmHg 50%
    22:00 +15°C° 0 mm 5 mps 734 mmHg 51%
    23:00 +15°C° 0 mm 5 mps 734 mmHg 52%

    28 April, Friday

    Time Temperature Precipitation Wind Pressure Humidity
    00:00 +15°C° 0 mm 5 mps 734 mmHg 54%
    01:00 +14°C° 0 mm 4 mps 734 mmHg 55%
    02:00 +14°C° 0 mm 4 mps 734 mmHg 56%
    03:00 +14°C° 0 mm 4 mps 734 mmHg 58%
    04:00 +13°C° 0 mm 4 mps 735 mmHg 59%
    05:00 +13°C° 0 mm 4 mps 735 mmHg 61%
    06:00 +13°C° 0 mm 4 mps 735 mmHg 62%
    07:00 +14°C° 0 mm 3 mps 736 mmHg 64%
    08:00 +17°C° 0 mm 4 mps 736 mmHg 56%
    09:00 +19°C° 0 mm 4 mps 737 mmHg 47%
    10:00 +22°C° 0 mm 5 mps 737 mmHg 39%
    11:00 +23°C° 0 mm 5 mps 737 mmHg 36%
    12:00 +25°C° 0 mm 5 mps 736 mmHg 32%
    13:00 +26°C° 0 mm 6 mps 736 mmHg 29%
    14:00 +25°C° 0 mm 5 mps 736 mmHg 29%
    15:00 +25°C° 0 mm 4 mps 735 mmHg 29%
    16:00 +24°C° 0 mm 3 mps 735 mmHg 29%
    17:00 +21°C° 0 mm 3 mps 735 mmHg 32%
    18:00 +20°C° 0 mm 3 mps 736 mmHg 35%
    19:00 +18°C° 0 mm 2 mps 736 mmHg 38%
    20:00 +18°C° 0 mm 2 mps 736 mmHg 41%
    21:00 +17°C° 0 mm 2 mps 736 mmHg 43%
    22:00 +17°C° 0 mm 2 mps 736 mmHg 46%
    23:00 +16°C° 0 mm 2 mps 735 mmHg 49%

    29 April, Saturday

    Time Temperature Precipitation Wind Pressure Humidity
    00:00 +15°C° 0 mm 2 mps 735 mmHg 53%
    01:00 +15°C° 0 mm 1 mps 735 mmHg 56%
    02:00 +14°C° 0 mm 1 mps 734 mmHg 57%
    03:00 +14°C° 0 mm 1 mps 734 mmHg 59%
    04:00 +14°C° 0 mm 1 mps 734 mmHg 61%
    05:00 +14°C° 0 mm 1 mps 734 mmHg 60%
    06:00 +14°C° 0 mm 1 mps 734 mmHg 60%
    07:00 +14°C° 0 mm 1 mps 734 mmHg 60%
    08:00 +16°C° 0 mm 1 mps 734 mmHg 51%
    09:00 +20°C° 0 mm 1 mps 734 mmHg 43%
    10:00 +22°C° 0 mm 1 mps 734 mmHg 34%
    11:00 +24°C° 0 mm 2 mps 733 mmHg 30%
    12:00 +25°C° 0 mm 3 mps 733 mmHg 26%
    13:00 +26°C° 0 mm 3 mps 732 mmHg 22%
    14:00 +26°C° 0 mm 3 mps 732 mmHg 23%
    15:00 +25°C° 0 mm 2 mps 732 mmHg 24%
    16:00 +24°C° 0 mm 2 mps 732 mmHg 25%
    17:00 +23°C° 0 mm 2 mps 733 mmHg 27%
    18:00 +20°C° 0 mm 2 mps 734 mmHg 30%
    19:00 +19°C° 0 mm 2 mps 734 mmHg 32%
    20:00 +18°C° 0 mm 2 mps 734 mmHg 36%
    21:00 +18°C° 0 mm 2 mps 735 mmHg 39%
    22:00 +18°C° 0 mm 3 mps 735 mmHg 43%
    23:00 +17°C° 0 mm 3 mps 735 mmHg 46%
    Show more